Location: ???????
(55.4362°N, 38.1183°E)
Time: 11:29:15
(UTC+00:00)

Cosmos 372 Rocket - Pass Details

Date: 20 October 2021
Orbit: 738 x 768 km, 74.1° (Epoch: 29 November)

Event Time Altitude Azimuth Distance (km) Brightness Sun altitude
Rises 15:32:18 0° 232° (SW) 3,174 8.1 -11.5°
Reaches altitude 10° 15:34:48 10° 239° (WSW) 2,251 7.4 -11.9°
Maximum altitude 15:39:35 40° 309° (NW) 1,090 5.3 -12.6°
Drops below altitude 10° 15:44:23 10° 19° (NNE) 2,260 6.2 -13.2°
Sets 15:46:54 0° 27° (NNE) 3,187 6.9 -13.6°
